GW0883 Weather Reports


Display with metric or nautical units.
time (UTC)temp
F
wind
direction
speed
MPH
gust
MPH
rain 1hr
in
rain 24hr
in
rain mn
in
humidity
%
barometer
mb
20260510100827 47 292 0.0 0.0 0.00 0.65 0.00 92 1014.5
20260510095828 46 180 0.0 0.0 0.00 0.65 0.00 92 1014.5
20260510094828 46 180 0.0 0.0 0.00 0.65 0.00 92 1014.5
20260510092829 45 180 0.0 0.0 0.00 0.65 0.00 91 1014.5
20260510091827 45 180 0.0 0.0 0.00 0.65 0.00 92 1014.2
20260510090828 45 180 0.0 0.0 0.00 0.65 0.00 91 1014.1
20260510085829 45 180 0.0 0.0 0.00 0.65 0.00 91 1014.0
20260510084927 45 180 0.0 0.0 0.00 0.65 0.00 91 1014.0
20260510083927 45 180 0.0 0.0 0.00 0.65 0.00 91 1014.0
20260510082929 45 180 0.0 0.0 0.00 0.65 0.00 91 1013.9
20260510081929 46 180 0.0 0.0 0.00 0.65 0.00 91 1013.7
20260510080928 47 180 0.0 0.0 0.00 0.65 0.00 91 1013.9
20260510075928 47 180 0.0 0.0 0.00 0.65 0.00 92 1013.9
20260510074928 47 202 0.0 0.0 0.00 0.65 0.00 92 1013.9
20260510073927 48 202 0.0 0.0 0.00 0.65 0.00 92 1013.9
20260510072927 47 202 0.0 0.0 0.00 0.65 0.00 92 1013.9
20260510070127 49 360 0.0 0.0 0.00 0.65 0.00 92 1013.6
20260510064128 50 360 0.0 0.0 0.00 0.65 0.00 92 1013.5
20260510062227 50 45 0.0 0.0 0.00 0.65 0.00 92 1014.0
20260510061327 50 45 0.0 0.0 0.00 0.65 0.00 92 1014.1
20260510060328 50 45 0.0 0.0 0.00 0.65 0.00 92 1014.2
20260510055330 50 45 0.0 0.0 0.00 0.65 0.00 92 1014.1
20260510054428 50 45 0.0 0.0 0.00 0.65 0.00 91 1014.0
20260510053526 50 45 0.0 0.0 0.00 0.65 0.00 91 1014.0
20260510052528 50 45 0.0 0.0 0.00 0.65 0.00 92 1014.4
20260510050627 50 45 0.0 0.0 0.00 0.65 0.00 91 1014.3
20260510045627 50 45 0.0 0.0 0.00 0.65 0.00 91 1014.2
20260510044628 50 45 0.0 0.0 0.00 0.65 0.00 90 1014.2
20260510043628 50 45 0.0 0.0 0.00 0.65 0.00 91 1014.3
20260510043529 50 45 0.0 0.0 0.00 0.65 0.00 91 1014.2
20260510042543 50 45 0.0 0.0 0.00 0.65 0.00 91 1014.5
20260510041629 50 45 0.0 0.0 0.00 0.65 0.00 90 1014.6
20260510040629 50 45 0.0 0.0 0.00 0.65 0.00 91 1014.4
20260510035724 50 45 0.0 0.0 0.00 0.65 0.65 90 1014.2
20260510033823 50 45 0.0 0.0 0.00 0.65 0.65 91 1014.3
20260510032822 50 45 0.0 0.0 0.01 0.65 0.65 90 1014.4
20260510031823 51 270 0.0 0.0 0.01 0.65 0.65 90 1014.4
20260510030824 51 270 0.0 0.0 0.01 0.65 0.65 91 1014.6
20260510025922 51 270 0.0 0.0 0.01 0.65 0.65 90 1014.8
20260510024922 51 225 0.0 0.0 0.01 0.65 0.65 91 1014.8
20260510023923 51 225 0.0 0.0 0.01 0.65 0.65 91 1014.9
20260510023022 51 292 0.0 0.0 0.01 0.65 0.65 91 1014.9
20260510022024 51 215 0.0 1.0 0.00 0.64 0.64 91 1014.8
20260510021024 51 234 3.0 6.0 0.00 0.64 0.64 91 1014.9
20260510020123 51 225 0.0 2.0 0.00 0.64 0.64 90 1014.9
20260510014224 51 225 0.0 0.0 0.00 0.64 0.64 89 1014.8
20260510013322 51 219 2.0 4.0 0.00 0.64 0.64 90 1014.9
20260510012322 51 236 0.0 2.0 0.02 0.64 0.64 90 1014.9
20260510011322 50 214 1.0 2.0 0.02 0.64 0.64 90 1014.8
20260510003322 49 215 0.0 2.0 0.11 0.64 0.64 88 1014.7
20260510002323 49 210 0.0 1.0 0.11 0.62 0.62 89 1014.8
20260510000323 49 210 0.0 0.0 0.14 0.60 0.60 88 1014.9
20260509235326 49 85 1.0 3.0 0.14 0.59 0.57 87 1015.0
20260509234422 49 180 0.0 1.0 0.12 0.56 0.56 87 1015.2
20260509233424 49 225 0.0 0.0 0.11 0.54 0.53 87 1015.1
20260509232422 49 180 0.0 0.0 0.09 0.51 0.51 87 1015.1
20260509231422 49 178 1.0 2.0 0.09 0.49 0.49 88 1015.2
20260509224424 49 45 0.0 0.0 0.06 0.44 0.44 86 1014.6
20260509221524 49 67 0.0 0.0 0.09 0.40 0.40 87 1014.9
20260509220523 49 67 0.0 0.0 0.14 0.40 0.40 87 1014.9
20260509215525 49 83 1.0 4.0 0.19 0.39 0.39 85 1014.9
20260509214528 49 52 0.0 2.0 0.20 0.38 0.38 86 1014.9
20260509213524 49 67 0.0 1.0 0.21 0.37 0.36 86 1014.9
20260509212525 49 58 1.0 3.0 0.22 0.35 0.34 85 1014.8
20260509211622 49 231 0.0 2.0 0.20 0.31 0.31 85 1015.1
20260509205624 49 45 1.0 2.0 0.12 0.21 0.20 85 1015.0
20260509204721 49 114 2.0 4.0 0.09 0.18 0.18 84 1014.9
20260509203724 49 212 1.0 4.0 0.07 0.16 0.16 85 1014.9
20260509202822 49 147 0.0 0.0 0.05 0.14 0.14 84 1014.9
20260509201823 50 46 1.0 2.0 0.03 0.12 0.11 85 1014.9
20260509200923 50 61 0.0 1.0 0.00 0.09 0.09 85 1014.9
20260509200022 50 45 0.0 2.0 0.00 0.09 0.09 84 1015.0
20260509194022 50 44 0.0 0.0 0.00 0.09 0.09 83 1015.0
20260509193024 49 60 1.0 2.0 0.00 0.09 0.09 84 1015.1
20260509192122 50 65 3.0 5.0 0.00 0.09 0.09 83 1014.9
20260509191124 50 34 1.0 2.0 0.00 0.09 0.09 83 1015.1
20260509190222 50 63 1.0 2.0 0.00 0.09 0.09 84 1015.1
20260509185223 50 140 1.0 4.0 0.00 0.09 0.09 84 1014.8
20260509184322 49 61 4.0 6.0 0.00 0.09 0.09 84 1015.1
20260509183325 49 53 3.0 4.0 0.00 0.09 0.09 84 1015.0
20260509181322 49 45 1.0 3.0 0.01 0.09 0.09 82 1015.5
20260509175323 49 107 2.0 4.0 0.01 0.09 0.09 83 1016.0
20260509174322 48 54 2.0 5.0 0.01 0.09 0.09 83 1015.8
20260509173323 48 14 1.0 2.0 0.01 0.09 0.09 81 1016.0
20260509172325 48 67 2.0 5.0 0.01 0.09 0.09 82 1015.9
20260509171422 48 18 1.0 3.0 0.00 0.08 0.08 82 1015.8
20260509170422 48 65 3.0 6.0 0.00 0.08 0.08 81 1016.0
20260509165422 48 62 1.0 2.0 0.01 0.08 0.08 82 1016.1
20260509164423 48 360 2.0 3.0 0.01 0.08 0.08 80 1016.2
20260509163522 48 64 3.0 4.0 0.02 0.08 0.08 80 1016.1
20260509162524 48 67 1.0 2.0 0.02 0.08 0.08 80 1016.4
20260509161522 47 56 0.0 2.0 0.02 0.08 0.08 80 1016.5
20260509160621 47 85 0.0 2.0 0.02 0.08 0.08 80 1016.4
20260509155625 47 24 0.0 1.0 0.01 0.07 0.07 79 1016.5
20260509154624 47 176 2.0 3.0 0.02 0.07 0.07 79 1016.4
20260509153623 47 67 2.0 3.0 0.01 0.06 0.06 80 1016.3
20260509152624 47 45 0.0 1.0 0.02 0.06 0.06 79 1016.3
20260509151721 47 49 0.0 2.0 0.02 0.06 0.06 79 1016.3
20260509150723 46 67 0.0 2.0 0.02 0.06 0.06 78 1016.5
20260509145723 46 69 0.0 2.0 0.03 0.06 0.06 78 1016.7
20260509144822 46 54 1.0 3.0 0.03 0.06 0.06 77 1016.8
20260509143825 46 360 0.0 2.0 0.02 0.05 0.05 77 1017.0
20260509142823 45 67 1.0 2.0 0.03 0.05 0.05 76 1017.2
20260509141823 45 66 2.0 2.0 0.02 0.04 0.04 76 1017.3
20260509140922 45 45 0.0 0.0 0.02 0.04 0.04 75 1017.2
20260509135924 45 180 0.0 0.0 0.01 0.03 0.03 76 1017.3
20260509135021 44 67 0.0 0.0 0.01 0.03 0.03 75 1017.4
20260509134023 44 67 0.0 0.0 0.01 0.03 0.03 74 1017.4
20260509133023 44 67 0.0 0.0 0.02 0.03 0.02 75 1017.3
20260509131121 43 67 0.0 0.0 0.01 0.02 0.02 74 1017.0
20260509130122 43 67 0.0 0.0 0.01 0.02 0.02 73 1017.0
20260509125221 43 67 0.0 0.0 0.01 0.02 0.02 73 1016.8
20260509124222 42 67 0.0 0.0 0.02 0.02 0.02 72 1017.1
20260509122224 42 247 0.0 0.0 0.01 0.01 0.01 72 1017.3
20260509120224 42 247 0.0 0.0 0.01 0.01 0.01 70 1017.3
20260509115322 42 247 0.0 0.0 0.01 0.01 0.01 70 1017.5
20260509114324 41 247 0.0 0.0 0.00 0.00 0.00 70 1017.4
20260509113422 41 270 0.0 0.0 0.00 0.00 0.00 69 1017.1
20260509112424 41 270 0.0 0.0 0.00 0.00 0.00 69 1017.3
20260509111521 41 270 0.0 0.0 0.00 0.00 0.00 68 1017.3
20260509110523 40 270 0.0 0.0 0.00 0.00 0.00 67 1017.3
20260509104523 39 264 1.0 2.0 0.00 0.00 0.00 66 1017.2
20260509102524 37 247 0.0 0.0 0.00 0.00 0.00 66 1017.0